Location: Vihti�l�
(61.3833°N, 23.0667°E)
Time: 05:50:44
(UTC+00:00)

Cosmos 1862 Rocket - Pass Details

Date: 29 November 2020
Orbit: 603 x 635 km, 82.5° (Epoch: 22 January)

Event Time Altitude Azimuth Distance (km) Brightness Sun altitude
Exits shadow 05:06:21 - 344° (NNW) 2,381 6.2 -13.0°
Reaches altitude 10° 05:07:13 10° 343° (NNW) 2,033 5.8 -12.9°
Maximum altitude 05:11:43 75° 259° (W) 660 3.5 -12.4°
Drops below altitude 10° 05:16:09 10° 174° (S) 2,003 6.6 -12.0°
Sets 05:18:22 0° 173° (S) 2,901 7.5 -11.7°
